THORAD DELTA 1 DEB, 8159

Orbit data source: Space-Track

THORAD DELTA 1 DEB, 8159 is space debris in SSO originally from a launch on Fri, 15 Nov 1974 UTC launched from the Air Force Western Test Range (AFWTR). Debris objects in space refer to the collection of defunct objects orbiting the Earth. Examples of debris include non-operational satellites, rocket bodies, and fragments generated from explosions, collisions, or faulty payload assembly.

Loading next visibility...
Identifier
8159, 1974-089Z
Orbit
SSO
Country
Flag of USUS
Related business
Manufacturer
Unknown
Mission
Spacecraft
Bus & Motor
Unknown
Mass
Unknown
Launch date (UTC)
1974-11-15 (51 years ago)
Launch vehicle
Unknown
Launch site
Air Force Western Test Range (AFWTR)
Object type
Payload
Rocket body
Debris
Shape & HBR
Unknown shape, 1.1 m
Radar Cross Section
Small (<0.1 m²)

Expand to show TLE details & history
Last TLE update: 23 hours ago

TLE from 23 hours ago
0 THORAD DELTA 1 DEB
1 08159U 74089Z   26095.01184342  .00000514  00000-0  28697-2 0  9990
2 08159 101.3887 118.0163 0031715  15.5094 344.6953 12.68450561349529
Epoch: 2026-04-05T00:17Z
TLE epoch observation values (Epoch: 2026-04-05T00:17:03.271Z)
Latitude
-0.00004°
Longitude
-79.57071°
Altitude
1,367.114 km
Speed
7.186 km/s
True Right ascension
07h 52m 03s
True Declination
0° 00' 00"
Sunlit
Object was in daylight at epoch
Visualization orbit readout
Latitude
Unknown
Longitude
Unknown
Altitude
Unknown
Speed
Unknown
Apparent Right ascension
Unknown
Apparent Declination
Unknown
Sunlit
N/A
Visualization observer readout
Local Sidereal Time
05:04:11
Azimuth
Unknown
Elevation
Unknown
Doppler factor
Unknown
Orbital elements
Apogee altitude
1,410.383 km
Perigee altitude
1,361.136 km
Semi-major axis
7,763.897 km
Eccentricity
0.00317
Inclination
101.3887°
RAAN
118.0163°
Arg. of periapsis
15.5094°
True anomaly
344.599°
Mean anomaly
344.6953°
Eccentric anomaly
344.64719°
Mean motion
3.17266 °/min
Orbital period
113.47 mins
BSTAR
0.0028697
Loading maneuver chart data...
Computing Atmospheric mass density...
Loading historical data...
Loading historical data...
Loading historical data...
Loading historical data...
Loading historical data...
Loading historical data...
Loading historical data...

Documentation

Showing up to 5 results
|